CW3001 Weather Reports


Display with metric or nautical units.
time (UTC)temp
F
wind
direction
speed
MPH
gust
MPH
rain 1hr
in
rain 24hr
in
rain mn
in
humidity
%
barometer
mb
20260506200339 51 16 2.0 4.0 0.00 0.02 0.02 72 1011.7
20260506195831 51 16 0.0 2.0 0.00 0.02 0.02 73 1011.7
20260506195327 52 13 0.0 2.0 0.00 0.02 0.02 73 1011.7
20260506194825 52 49 1.0 4.0 0.00 0.02 0.02 71 1011.8
20260506194324 52 52 2.0 5.0 0.00 0.02 0.02 70 1011.6
20260506194144 52 45 3.0 5.0 0.00 0.02 0.02 70 1011.6
20260506193323 52 56 2.0 7.0 0.00 0.02 0.02 70 1011.5
20260506193134 52 44 4.0 7.0 0.00 0.02 0.02 70 1011.5
20260506192323 52 44 2.0 5.0 0.00 0.02 0.02 71 1011.5
20260506191823 52 48 2.0 5.0 0.00 0.02 0.02 71 1011.5
20260506191324 52 42 3.0 7.0 0.00 0.02 0.02 70 1011.4
20260506190825 52 21 4.0 7.0 0.00 0.02 0.02 71 1011.3
20260506190323 52 58 3.0 7.0 0.00 0.02 0.02 71 1011.2
20260506185823 52 49 3.0 7.0 0.00 0.02 0.02 70 1011.2
20260506185323 52 48 5.0 7.0 0.00 0.02 0.02 70 1011.1
20260506185115 52 56 4.0 6.0 0.00 0.02 0.02 70 1010.9
20260506184617 52 49 3.0 7.0 0.00 0.02 0.02 70 1011.0
20260506184135 52 47 4.0 7.0 0.00 0.02 0.02 70 1011.0
20260506183322 52 48 3.0 7.0 0.00 0.02 0.02 70 1011.0
20260506182823 52 42 3.0 7.0 0.00 0.02 0.02 72 1010.8
20260506182332 52 28 3.0 7.0 0.00 0.02 0.02 71 1010.8
20260506181821 52 35 3.0 6.0 0.00 0.02 0.02 72 1010.9
20260506181331 52 30 3.0 6.0 0.00 0.02 0.02 71 1010.7
20260506180821 52 52 4.0 9.0 0.00 0.02 0.02 71 1010.7
20260506180322 52 52 4.0 10.0 0.00 0.02 0.02 72 1010.6
20260506175822 52 30 5.0 10.0 0.00 0.02 0.02 72 1010.6
20260506175322 52 39 4.0 7.0 0.00 0.02 0.02 72 1010.5
20260506175029 52 38 4.0 11.0 0.00 0.02 0.02 72 1010.3
20260506174938 52 34 4.0 7.0 0.00 0.02 0.02 73 1010.4
20260506174407 52 54 4.0 11.0 0.00 0.02 0.02 73 1010.3
20260506173319 52 51 5.0 11.0 0.00 0.02 0.02 73 1010.2
20260506172820 52 32 4.0 11.0 0.00 0.02 0.02 73 1010.2
20260506172321 52 42 5.0 9.0 0.00 0.02 0.02 73 1010.2
20260506171819 52 51 4.0 13.0 0.00 0.02 0.02 74 1010.2
20260506171320 52 69 5.0 14.0 0.00 0.02 0.02 73 1010.1
20260506170821 52 38 7.0 15.0 0.00 0.02 0.02 73 1010.1
20260506170319 52 82 8.0 17.0 0.00 0.02 0.02 72 1010.1
20260506165821 53 8 9.0 17.0 0.00 0.02 0.02 71 1010.1
20260506165321 53 69 9.0 13.0 0.00 0.02 0.02 70 1010.0
20260506164819 53 37 6.0 12.0 0.00 0.02 0.02 69 1010.1
20260506164320 53 35 6.0 14.0 0.00 0.02 0.02 70 1009.9
20260506163820 53 28 7.0 14.0 0.00 0.02 0.02 69 1009.7
20260506163321 54 41 5.0 13.0 0.00 0.02 0.02 68 1009.8
20260506162819 54 6 6.0 11.0 0.00 0.02 0.02 66 1009.8
20260506162332 54 24 5.0 11.0 0.00 0.02 0.02 66 1009.7
20260506162146 54 59 6.0 11.0 0.00 0.02 0.02 65 1009.7
20260506161318 54 54 6.0 11.0 0.00 0.02 0.02 65 1009.8
20260506160836 54 47 6.0 11.0 0.00 0.02 0.02 67 1009.7
20260506160628 54 39 5.0 12.0 0.00 0.02 0.02 66 1009.8
20260506155819 54 35 7.0 13.0 0.00 0.02 0.02 64 1009.8
20260506155318 54 47 6.0 13.0 0.00 0.02 0.02 64 1009.7
20260506154820 54 39 8.0 14.0 0.00 0.02 0.02 63 1009.8
20260506154649 55 47 8.0 14.0 0.00 0.02 0.02 63 1009.8
20260506153818 55 24 7.0 16.0 0.00 0.02 0.02 63 1009.7
20260506153318 55 48 10.0 16.0 0.00 0.02 0.02 63 1009.6
20260506152817 55 25 8.0 15.0 0.00 0.02 0.02 63 1009.6
20260506152317 55 31 7.0 15.0 0.00 0.02 0.02 62 1009.6
20260506151817 55 24 9.0 15.0 0.00 0.02 0.02 62 1009.6
20260506151317 55 34 8.0 13.0 0.00 0.02 0.02 61 1009.5
20260506151104 55 27 7.0 13.0 0.00 0.02 0.02 62 1009.6
20260506150315 56 34 6.0 15.0 0.00 0.02 0.02 60 1009.4
20260506145925 56 45 9.0 17.0 0.00 0.02 0.02 58 1009.4
20260506145905 56 45 6.0 17.0 0.00 0.02 0.02 60 1009.5
20260506144815 56 34 7.0 16.0 0.00 0.02 0.02 59 1009.4
20260506144316 56 24 6.0 16.0 0.00 0.02 0.02 59 1009.3
20260506143818 56 47 8.0 15.0 0.00 0.02 0.02 58 1009.3
20260506143331 56 39 6.0 14.0 0.00 0.02 0.02 58 1009.4
20260506142832 56 35 6.0 14.0 0.00 0.02 0.02 63 1009.2
20260506142315 56 24 4.0 12.0 0.00 0.02 0.02 63 1009.3
20260506141815 56 13 6.0 12.0 0.00 0.02 0.02 62 1009.2
20260506141317 57 45 7.0 13.0 0.00 0.02 0.02 63 1009.2
20260506140816 57 52 6.0 14.0 0.00 0.02 0.02 65 1009.2
20260506140315 57 31 7.0 15.0 0.00 0.02 0.02 62 1009.3
20260506140141 57 18 8.0 16.0 0.00 0.02 0.02 63 1009.2
20260506135315 57 71 9.0 16.0 0.00 0.02 0.02 61 1009.2
20260506134816 57 23 9.0 16.0 0.00 0.02 0.02 64 1009.0
20260506134314 58 25 7.0 11.0 0.00 0.02 0.02 64 1009.1
20260506133814 58 41 8.0 15.0 0.00 0.02 0.02 61 1009.2
20260506133314 58 100 8.0 15.0 0.00 0.02 0.02 60 1009.1
20260506132814 58 34 7.0 16.0 0.00 0.02 0.02 61 1009.1
20260506132315 58 44 8.0 16.0 0.00 0.02 0.02 59 1009.1
20260506131814 58 0 6.0 15.0 0.00 0.02 0.02 61 1008.9
20260506131313 59 61 9.0 15.0 0.00 0.02 0.02 57 1009.0
20260506130817 58 51 8.0 15.0 0.00 0.02 0.02 60 1008.9
20260506130405 58 100 6.0 15.0 0.00 0.02 0.02 57 1008.7
20260506130347 59 39 8.0 15.0 0.00 0.02 0.02 57 1008.7
20260506125313 58 21 7.0 14.0 0.00 0.02 0.02 56 1008.7
20260506124813 58 51 5.0 11.0 0.00 0.02 0.02 57 1008.7
20260506124436 58 68 5.0 13.0 0.00 0.02 0.02 58 1008.7
20260506124358 58 37 5.0 13.0 0.00 0.02 0.02 58 1008.8
20260506123314 58 76 7.0 13.0 0.00 0.02 0.02 55 1008.8
20260506122814 58 56 6.0 13.0 0.01 0.02 0.02 57 1008.7
20260506122600 58 0 6.0 15.0 0.01 0.02 0.02 58 1008.7
20260506121811 58 7 6.0 15.0 0.01 0.02 0.02 59 1008.7
20260506121312 58 41 6.0 11.0 0.01 0.02 0.02 62 1008.7
20260506120813 58 37 7.0 12.0 0.01 0.02 0.02 61 1008.6
20260506120313 58 63 6.0 12.0 0.01 0.02 0.02 61 1008.6
20260506115811 58 20 6.0 13.0 0.01 0.01 0.02 65 1008.6
20260506115630 58 73 6.0 13.0 0.01 0.01 0.02 60 1008.5
20260506114811 58 25 7.0 11.0 0.01 0.01 0.02 62 1008.4
20260506114312 58 44 6.0 12.0 0.01 0.01 0.02 62 1008.5
20260506113812 58 41 6.0 14.0 0.01 0.01 0.02 64 1008.4
20260506113311 57 14 8.0 15.0 0.01 0.01 0.01 65 1008.5
20260506112811 57 37 8.0 16.0 0.00 0.01 0.01 64 1008.4
20260506112349 57 38 7.0 13.0 0.00 0.01 0.01 66 1008.5
20260506112335 57 31 7.0 16.0 0.00 0.01 0.01 63 1008.6
20260506111329 57 0 8.0 13.0 0.00 0.01 0.01 67 1008.5
20260506111057 57 20 9.0 13.0 0.00 0.01 0.01 66 1008.5
20260506110313 56 25 7.0 13.0 0.00 0.01 0.01 68 1008.5
20260506105810 56 35 7.0 13.0 0.00 0.01 0.01 67 1008.7
20260506105323 57 10 7.0 13.0 0.00 0.01 0.01 70 1008.5
20260506105155 57 32 5.0 14.0 0.00 0.01 0.01 69 1008.6
20260506104309 57 18 7.0 14.0 0.00 0.01 0.01 69 1008.4
20260506103810 57 18 7.0 14.0 0.00 0.01 0.01 69 1008.4
20260506103310 57 13 6.0 13.0 0.00 0.01 0.01 67 1008.4
20260506103052 57 35 8.0 13.0 0.00 0.01 0.01 68 1008.5
20260506102310 56 23 6.0 14.0 0.00 0.01 0.01 70 1008.4
20260506102052 56 23 6.0 14.0 0.00 0.01 0.01 72 1008.3
20260506101309 56 59 5.0 10.0 0.00 0.01 0.01 72 1008.3
20260506100809 56 0 4.0 13.0 0.00 0.01 0.01 74 1008.4
20260506100309 56 31 7.0 13.0 0.00 0.01 0.01 74 1008.4
20260506095822 56 24 6.0 11.0 0.00 0.01 0.01 76 1008.2
20260506095309 56 7 6.0 11.0 0.00 0.01 0.01 77 1008.2
20260506094808 56 11 8.0 11.0 0.00 0.01 0.01 77 1008.2
20260506094557 55 31 5.0 9.0 0.00 0.01 0.01 78 1008.3
20260506093809 55 7 4.0 9.0 0.00 0.01 0.01 79 1008.3
20260506093307 55 25 5.0 13.0 0.00 0.01 0.01 80 1008.3
20260506092807 55 20 6.0 13.0 0.00 0.01 0.01 80 1008.2
20260506092307 54 10 7.0 14.0 0.00 0.01 0.01 80 1008.2
20260506091813 54 3 8.0 14.0 0.00 0.01 0.01 80 1008.2
20260506091551 54 11 7.0 11.0 0.00 0.01 0.01 81 1008.3
20260506090806 54 31 6.0 10.0 0.00 0.01 0.01 81 1008.2
20260506090307 54 7 5.0 10.0 0.00 0.01 0.01 82 1008.3
20260506085807 54 10 5.0 10.0 0.00 0.01 0.01 82 1008.2
20260506085308 54 24 6.0 11.0 0.00 0.01 0.01 82 1008.2
20260506085049 54 28 5.0 11.0 0.00 0.01 0.01 82 1008.2
20260506084306 53 16 5.0 13.0 0.00 0.01 0.01 82 1008.1
20260506084051 53 42 7.0 13.0 0.00 0.01 0.01 82 1008.0
20260506083308 53 18 6.0 10.0 0.00 0.01 0.01 83 1008.1
20260506082808 53 4 6.0 11.0 0.00 0.01 0.01 84 1007.9
20260506082306 53 31 5.0 12.0 0.00 0.01 0.01 85 1008.0
20260506081806 52 38 4.0 12.0 0.00 0.01 0.01 85 1008.0
20260506081307 52 0 4.0 11.0 0.00 0.01 0.01 86 1008.1
20260506080806 52 18 7.0 11.0 0.00 0.01 0.01 86 1008.2
20260506080307 51 0 4.0 10.0 0.00 0.01 0.01 87 1008.1
20260506073304 50 18 5.0 10.0 0.00 0.01 0.01 88 1007.9
20260506072804 50 11 5.0 10.0 0.00 0.01 0.01 88 1007.9
20260506072305 50 6 5.0 10.0 0.00 0.01 0.01 89 1007.9
20260506071804 50 17 5.0 10.0 0.00 0.01 0.01 89 1008.0
20260506071522 49 0 6.0 9.0 0.00 0.01 0.01 90 1008.0
20260506071412 50 3 6.0 10.0 0.00 0.01 0.01 89 1008.0
20260506071141 50 13 5.0 10.0 0.00 0.01 0.01 89 1007.9
20260506062305 48 1 5.0 6.0 0.00 0.01 0.01 92 1007.8
20260506061804 48 16 4.0 7.0 0.00 0.01 0.01 92 1007.8
20260506061319 48 23 4.0 9.0 0.00 0.01 0.01 92 1007.7
20260506060803 48 16 5.0 9.0 0.00 0.01 0.01 92 1007.7
20260506060303 48 7 5.0 9.0 0.00 0.01 0.01 92 1007.7
20260506051302 48 7 7.0 11.0 0.00 0.01 0.01 92 1007.7
20260506051048 47 14 6.0 10.0 0.00 0.01 0.01 92 1007.7
20260506050301 47 358 5.0 13.0 0.00 0.01 0.01 92 1007.7
20260506045055 47 31 5.0 12.0 0.00 0.01 0.01 92 1007.6
20260506044315 47 25 6.0 11.0 0.00 0.01 0.01 92 1007.6
20260506043800 47 14 5.0 10.0 0.00 0.01 0.01 92 1007.5
20260506043614 47 25 4.0 12.0 0.00 0.01 0.01 92 1007.5
20260506042800 47 16 8.0 13.0 0.00 0.01 0.01 92 1007.6
20260506042300 47 7 7.0 13.0 0.00 0.01 0.01 92 1007.5
20260506041813 47 11 5.0 12.0 0.01 0.01 0.01 92 1007.5
20260506041313 47 24 6.0 11.0 0.01 0.01 0.01 91 1007.5
20260506040800 47 17 6.0 11.0 0.01 0.01 0.01 91 1007.5
20260506040259 47 28 7.0 11.0 0.01 0.01 0.01 91 1007.7
20260506035759 47 1 6.0 11.0 0.01 0.00 0.01 91 1007.6
20260506035259 47 0 6.0 11.0 0.01 0.00 0.01 91 1007.6
20260506034759 47 27 6.0 11.0 0.01 0.00 0.01 91 1007.7
20260506034312 47 37 5.0 11.0 0.01 0.00 0.01 91 1007.6
20260506033759 48 13 6.0 12.0 0.01 0.00 0.01 91 1007.7
20260506033259 48 0 6.0 12.0 0.01 0.00 0.01 91 1007.8
20260506032759 48 10 6.0 9.0 0.01 0.00 0.01 91 1007.8
20260506032301 48 353 4.0 10.0 0.01 0.00 0.01 90 1007.8
20260506031759 48 32 5.0 10.0 0.00 0.00 0.00 90 1007.8
20260506031259 48 13 5.0 10.0 0.00 0.00 0.00 90 1007.8
20260506030800 48 38 5.0 10.0 0.00 0.00 0.00 89 1007.9
20260506030628 48 17 3.0 9.0 0.00 0.00 0.00 89 1007.9
20260506025800 48 34 4.0 10.0 0.00 0.00 0.00 88 1007.9
20260506025300 49 37 5.0 10.0 0.00 0.00 0.00 88 1007.9
20260506024758 49 28 6.0 11.0 0.00 0.00 0.00 87 1008.0
20260506024258 49 16 4.0 12.0 0.00 0.00 0.00 86 1007.9
20260506023758 49 23 5.0 12.0 0.00 0.00 0.00 86 1008.0
20260506023547 49 0 4.0 10.0 0.00 0.00 0.00 87 1007.9
20260506022846 49 20 5.0 10.0 0.00 0.00 0.00 86 1008.0
20260506022257 49 23 5.0 10.0 0.00 0.00 0.00 87 1008.0
20260506022104 49 14 6.0 10.0 0.00 0.00 0.00 86 1008.0
20260506021257 49 45 6.0 10.0 0.00 0.00 0.00 86 1008.1
20260506020808 49 11 5.0 12.0 0.00 0.00 0.00 85 1008.1
20260506020256 49 17 7.0 12.0 0.00 0.00 0.00 84 1008.1
20260506015812 49 21 4.0 9.0 0.00 0.00 0.00 84 1008.1
20260506015611 49 14 5.0 9.0 0.00 0.00 0.00 84 1008.1
20260506014756 49 13 4.0 10.0 0.00 0.00 0.00 84 1008.1
20260506014256 49 25 7.0 11.0 0.00 0.00 0.00 84 1008.0
20260506014152 49 30 4.0 10.0 0.00 0.00 0.00 84 1008.2
20260506014144 49 20 6.0 11.0 0.00 0.00 0.00 84 1008.2
20260506012757 49 27 5.0 11.0 0.00 0.00 0.00 83 1008.2
20260506012257 49 59 5.0 11.0 0.00 0.00 0.00 83 1008.2
20260506011755 49 28 3.0 11.0 0.00 0.00 0.00 83 1008.2
20260506011255 49 17 4.0 12.0 0.00 0.00 0.00 83 1008.2
20260506010755 49 34 6.0 12.0 0.00 0.00 0.00 82 1008.2
20260506010255 49 30 6.0 12.0 0.00 0.00 0.00 82 1008.2
20260506005755 50 21 7.0 12.0 0.00 0.00 0.00 82 1008.2
20260506005257 50 23 8.0 12.0 0.00 0.00 0.00 82 1008.3
20260506004756 50 41 6.0 11.0 0.00 0.00 0.00 81 1008.3
20260506004555 50 8 4.0 11.0 0.00 0.00 0.00 81 1008.4
20260506003754 50 23 4.0 9.0 0.00 0.00 0.00 81 1008.4
20260506003254 50 0 6.0 12.0 0.00 0.00 0.00 81 1008.4
20260506002754 50 0 5.0 12.0 0.00 0.00 0.00 81 1008.4
20260506002257 50 10 6.0 11.0 0.00 0.00 0.00 81 1008.5
20260506001754 50 30 6.0 11.0 0.00 0.00 0.00 81 1008.5
20260506001254 50 13 6.0 11.0 0.00 0.01 0.00 81 1008.5
20260506000755 50 20 5.0 9.0 0.00 0.01 0.00 81 1008.6
20260506000255 50 20 4.0 13.0 0.00 0.01 0.00 81 1008.7
20260505235758 50 17 4.0 13.0 0.00 0.01 0.00 80 1008.7
20260505235254 50 25 4.0 11.0 0.00 0.02 0.00 80 1008.8
20260505234834 50 4 6.0 10.0 0.00 0.02 0.00 80 1008.7
20260505234820 50 23 4.0 11.0 0.00 0.02 0.00 81 1008.7
20260505233752 50 32 4.0 10.0 0.00 0.03 0.00 81 1008.8
20260505233254 50 35 6.0 10.0 0.00 0.03 0.00 80 1008.8
20260505232806 50 0 5.0 12.0 0.00 0.03 0.00 80 1008.7
20260505232253 51 24 4.0 12.0 0.00 0.03 0.00 80 1008.8
20260505231753 51 8 4.0 9.0 0.00 0.03 0.00 80 1008.8
20260505231252 51 7 5.0 11.0 0.00 0.03 0.00 80 1008.8
20260505230752 51 11 4.0 11.0 0.00 0.03 0.00 79 1008.9
20260505230252 51 21 6.0 10.0 0.00 0.03 0.00 79 1008.9
20260505225752 51 30 5.0 10.0 0.00 0.03 0.00 80 1008.9
20260505225250 51 38 5.0 10.0 0.00 0.03 0.00 79 1008.9
20260505224752 51 16 5.0 10.0 0.00 0.03 0.00 79 1009.0
20260505224251 51 13 5.0 11.0 0.00 0.03 0.00 79 1009.0
20260505223752 51 30 6.0 11.0 0.00 0.03 0.00 80 1009.1
20260505223251 51 18 7.0 11.0 0.00 0.03 0.00 79 1009.0
20260505222752 51 28 6.0 11.0 0.00 0.03 0.00 80 1009.0
20260505222252 51 42 4.0 10.0 0.00 0.03 0.00 80 1009.0
20260505221750 51 27 6.0 12.0 0.00 0.03 0.00 80 1009.0
20260505221251 51 7 6.0 12.0 0.00 0.04 0.00 79 1009.0
20260505220913 51 39 4.0 9.0 0.00 0.04 0.00 80 1009.1
20260505220846 51 28 6.0 10.0 0.00 0.04 0.00 80 1009.1
20260505215751 51 39 4.0 9.0 0.00 0.05 0.05 80 1009.1
20260505215250 51 28 4.0 11.0 0.00 0.05 0.05 80 1009.2
20260505214749 52 34 6.0 12.0 0.00 0.06 0.05 80 1009.2
20260505214250 52 21 4.0 12.0 0.00 0.07 0.05 81 1009.4
20260505213750 52 11 3.0 6.0 0.00 0.09 0.05 81 1009.3
20260505213249 52 18 4.0 7.0 0.00 0.13 0.05 81 1009.3
20260505212750 52 28 5.0 9.0 0.00 0.17 0.05 80 1009.3
20260505212250 52 24 4.0 12.0 0.00 0.20 0.05 80 1009.3
20260505211751 52 28 5.0 12.0 0.00 0.20 0.05 80 1009.3
20260505211249 52 38 5.0 11.0 0.00 0.23 0.05 79 1009.4
20260505211153 52 49 5.0 11.0 0.00 0.25 0.05 79 1009.3
20260505210250 52 8 5.0 11.0 0.00 0.29 0.05 79 1009.4
20260505205750 52 30 5.0 11.0 0.00 0.36 0.05 79 1009.4
20260505205248 52 42 6.0 11.0 0.00 0.40 0.05 78 1009.5
20260505204748 53 3 6.0 11.0 0.00 0.43 0.05 78 1009.3
20260505204248 53 39 5.0 10.0 0.00 0.46 0.05 78 1009.4
20260505203749 53 25 4.0 13.0 0.00 0.46 0.05 79 1009.3
20260505203247 53 35 7.0 13.0 0.00 0.46 0.05 78 1009.3
20260505202749 53 37 5.0 12.0 0.00 0.46 0.05 80 1009.4
20260505202248 53 37 7.0 12.0 0.00 0.46 0.05 82 1009.3
20260505201747 53 24 3.0 5.0 0.00 0.47 0.05 84 1009.3
20260505201248 53 45 2.0 5.0 0.00 0.50 0.05 85 1009.2
20260505201053 53 55 3.0 5.0 0.00 0.54 0.05 85 1009.3